Hourly Data Report for January 19, 2003

SHERBROOKE A
QUEBEC

45°26'00.000" N
71°41'00.000" W
241.40 m
7028124
71610
YSC

Download Data

Hourly Data (January 2003)
Hourly Data Report for January 19, 2003
TIME
LST
Temp Definition
°C
Dew Point Definition
°C
Rel Hum Definition
%
Precip. Amount Definition
mm

Wind Dir Definition
10's deg

Wind Spd Definition
km/h
Visibility Definition
km
Stn Press Definition
kPa
Hmdx Definition


Wind Chill Definition


Weather Definition


00:00 -22.5 -27.6 63   9 9 15.0 98.28   -30  
01:00 -24.3 -29.3 63   9 6 15.0 98.19   -30  
02:00 -24.7 -29.7 63   10 7 15.0 98.20   -31  
03:00 -24.7 -29.8 63   9 6 15.0 98.16   -30  
04:00 -24.9 -30.2 61   9 7 15.0 98.09   -31  
05:00 -25.7 -30.9 62   5 6 15.0 98.03   -32  
06:00 -25.7 -31.0 61   7 6 15.0 98.02   -32  
07:00 -25.0 -30.4 61   35 6 15.0 98.02   -31  
08:00 -24.9 -30.2 61   5 4 24.1 97.98   -29 Mostly Cloudy
09:00 -19.4 -25.1 61   5 4 24.1 97.94   -23 Mostly Cloudy
10:00 -16.2 -23.9 51   12 4 24.1 97.91   -19 Mostly Cloudy
11:00 -12.4 -22.6 42     0 24.1 97.84     Mostly Cloudy
12:00 -10.6 -21.5 40   27 4 24.1 97.78   -13 Mostly Cloudy
13:00 -9.6 -20.2 42   25 6 16.1 97.75   -13 Cloudy
14:00 -9.3 -15.5 61   23 9 19.3 97.70   -14 Cloudy
15:00 -9.2 -13.3 72   21 6 6.4 97.71   -13 Snow
16:00 -9.5 -13.4 73   22 7 24.1 97.70   -13 Mostly Cloudy
17:00 -13.3 -15.5 83   21 6 24.1 97.70   -17 Mostly Cloudy
18:00 -14.1 -17.8 74   22 7 15.0 97.69   -19  
19:00 -15.8 -18.2 82     0 15.0 97.70      
20:00 -13.9 -16.5 81   20 7 15.0 97.62   -19  
21:00 -18.6 -20.8 83   7 4 15.0 97.57   -22  
22:00 -16.5 -19.1 80   8 4 11.3 97.53   -20 Snow
23:00 -16.8 -19.3 81   7 6 15.0 97.45   -21  

Notes on Data Quality.

Legend

  • E = Estimated
  • M = Missing
  • NA = Not Available*
  • [empty] = Indicates an unobserved value
Date modified: